GW3224 Weather Reports


Display with metric or nautical units.
time (UTC)temp
F
wind
direction
speed
MPH
gust
MPH
rain 1hr
in
rain 24hr
in
rain mn
in
humidity
%
barometer
mb
20260510215729 70 300 3.0 13.0 0.00 0.02 0.02 48 1017.3
20260510212729 68 264 0.0 11.0 0.00 0.02 0.02 49 1016.8
20260510211728 69 27 6.0 15.0 0.00 0.02 0.02 46 1016.7
20260510210729 69 278 3.0 9.0 0.00 0.02 0.02 45 1016.5
20260510205729 69 305 5.0 9.0 0.00 0.02 0.02 46 1016.7
20260510203729 69 279 3.0 13.0 0.00 0.02 0.02 45 1016.8
20260510201729 69 327 6.0 23.0 0.00 0.02 0.02 45 1016.8
20260510200729 70 231 3.0 15.0 0.00 0.02 0.02 46 1016.8
20260510194730 69 20 3.0 9.0 0.00 0.02 0.02 43 1016.9
20260510193730 69 338 6.0 15.0 0.00 0.02 0.02 51 1016.8
20260510192729 70 258 5.0 9.0 0.00 0.02 0.02 47 1016.9
20260510191729 70 25 4.0 11.0 0.00 0.02 0.02 47 1016.9
20260510184730 70 269 5.0 15.0 0.00 0.02 0.02 45 1016.8
20260510182729 69 17 5.0 13.0 0.00 0.02 0.02 47 1016.9
20260510181729 69 128 1.0 13.0 0.00 0.02 0.02 51 1016.6
20260510180730 69 212 3.0 11.0 0.00 0.02 0.02 43 1016.8
20260510175729 69 157 2.0 13.0 0.00 0.02 0.02 46 1017.0
20260510174729 69 237 3.0 6.0 0.00 0.02 0.02 46 1016.6
20260510173729 68 319 4.0 11.0 0.00 0.02 0.02 45 1016.3
20260510171729 68 99 4.0 9.0 0.00 0.02 0.02 48 1016.7
20260510170738 68 316 5.0 11.0 0.00 0.02 0.02 49 1016.6
20260510165729 68 31 3.0 13.0 0.00 0.02 0.02 48 1016.5
20260510164730 67 7 1.0 11.0 0.00 0.02 0.02 50 1016.7
20260510163729 67 323 2.0 15.0 0.00 0.02 0.02 46 1016.7
20260510162728 67 78 4.0 15.0 0.00 0.02 0.02 48 1016.8
20260510161730 67 75 3.0 9.0 0.00 0.02 0.02 48 1016.8
20260510160729 66 41 3.0 11.0 0.00 0.02 0.02 55 1016.7
20260510155729 66 333 3.0 11.0 0.00 0.02 0.02 54 1016.7
20260510153729 64 49 3.0 6.0 0.00 0.02 0.02 57 1016.5
20260510151729 63 331 4.0 9.0 0.00 0.02 0.02 56 1016.4
20260510150729 62 135 5.0 13.0 0.00 0.02 0.02 60 1016.2
20260510145728 62 16 3.0 13.0 0.00 0.02 0.02 61 1016.1
20260510144729 62 38 3.0 6.0 0.00 0.02 0.02 62 1016.0
20260510143729 62 113 4.0 9.0 0.00 0.02 0.02 60 1015.7
20260510142729 62 11 2.0 9.0 0.00 0.02 0.02 62 1015.4
20260510140729 61 63 4.0 11.0 0.00 0.02 0.02 64 1015.2
20260510134729 59 336 2.0 4.0 0.00 0.02 0.02 69 1015.2
20260510133730 58 92 1.0 4.0 0.00 0.02 0.02 68 1015.1
20260510132729 58 68 2.0 9.0 0.00 0.02 0.02 70 1015.1
20260510131728 58 149 2.0 6.0 0.00 0.02 0.02 70 1014.9
20260510130729 57 31 0.0 2.0 0.00 0.02 0.02 78 1014.8
20260510125728 56 37 0.0 0.0 0.00 0.02 0.02 79 1014.8
20260510124729 56 358 0.0 2.0 0.00 0.03 0.02 78 1014.8
20260510122729 55 355 0.0 0.0 0.00 0.05 0.02 79 1014.4
20260510121730 55 62 0.0 0.0 0.00 0.06 0.02 78 1014.2
20260510120732 55 62 0.0 0.0 0.00 0.06 0.02 77 1014.2
20260510115732 56 62 0.0 0.0 0.00 0.06 0.02 76 1014.0
20260510112731 56 305 1.0 4.0 0.00 0.07 0.02 74 1013.5
20260510110731 56 350 0.0 2.0 0.00 0.07 0.02 75 1013.2
20260510105730 56 347 0.0 0.0 0.00 0.07 0.02 76 1013.2
20260510104730 56 243 0.0 0.0 0.00 0.07 0.02 77 1013.1
20260510102729 56 35 0.0 0.0 0.00 0.09 0.02 80 1012.5
20260510101729 56 336 0.0 0.0 0.00 0.10 0.02 80 1012.2
20260510100729 55 324 0.0 0.0 0.00 0.11 0.02 82 1012.2
20260510095729 55 337 0.0 0.0 0.00 0.12 0.02 85 1012.0
20260510094729 55 0 0.0 0.0 0.00 0.12 0.02 87 1011.7
20260510091729 55 326 0.0 0.0 0.00 0.14 0.02 89 1011.5
20260510090730 55 326 0.0 0.0 0.00 0.15 0.02 89 1011.2
20260510085729 56 258 0.0 0.0 0.00 0.16 0.02 89 1011.1
20260510084730 56 262 0.0 4.0 0.00 0.17 0.02 89 1011.0
20260510083728 56 258 0.0 0.0 0.00 0.17 0.02 89 1010.9
20260510082729 56 262 0.0 0.0 0.00 0.18 0.02 89 1010.5
20260510081728 56 290 0.0 0.0 0.00 0.18 0.02 88 1010.6
20260510080728 56 266 0.0 0.0 0.00 0.18 0.02 87 1010.3
20260510075730 56 261 0.0 0.0 0.01 0.19 0.02 86 1010.4
20260510074730 57 265 0.0 0.0 0.02 0.20 0.02 86 1010.1
20260510072730 58 265 0.0 0.0 0.02 0.20 0.02 82 1010.1
20260510071731 59 251 0.0 2.0 0.02 0.21 0.02 81 1009.8
20260510070729 60 224 1.0 11.0 0.02 0.22 0.02 81 1009.8
20260510065729 60 228 4.0 15.0 0.01 0.20 0.01 79 1010.3
20260510064729 61 213 0.0 15.0 0.00 0.21 0.00 77 1010.3
20260510063731 60 257 0.0 2.0 0.00 0.22 0.00 78 1010.1
20260510062730 60 271 0.0 2.0 0.00 0.22 0.00 78 1010.3
20260510061730 61 257 0.0 0.0 0.00 0.23 0.00 77 1010.2
20260510060729 62 245 0.0 9.0 0.00 0.23 0.00 76 1010.3
20260510053729 60 302 1.0 19.0 0.00 0.24 0.00 80 1010.5
20260510052729 60 262 0.0 2.0 0.00 0.24 0.00 80 1010.3
20260510051728 61 250 0.0 2.0 0.00 0.24 0.00 80 1010.0
20260510050729 60 245 0.0 2.0 0.00 0.24 0.00 79 1010.0
20260510045729 60 162 0.0 0.0 0.00 0.24 0.00 79 1009.7
20260510044729 60 220 0.0 2.0 0.00 0.24 0.00 79 1009.7
20260510043730 59 230 0.0 4.0 0.00 0.24 0.00 79 1009.5
20260510042728 59 185 0.0 0.0 0.00 0.24 0.00 79 1009.5
20260510041729 59 189 0.0 0.0 0.00 0.24 0.00 79 1009.4
20260510040729 58 219 0.0 2.0 0.00 0.24 0.00 80 1009.5
20260510035729 59 219 0.0 0.0 0.00 0.24 0.24 80 1009.6
20260510034729 59 214 0.0 0.0 0.00 0.24 0.24 79 1009.6
20260510033730 60 168 0.0 0.0 0.00 0.24 0.24 78 1009.3
20260510032730 60 149 0.0 0.0 0.00 0.24 0.24 77 1009.2
20260510025730 59 171 0.0 0.0 0.00 0.24 0.24 80 1009.1
20260510023729 59 169 0.0 0.0 0.00 0.24 0.24 79 1009.0
20260510021731 60 169 0.0 0.0 0.00 0.24 0.24 78 1008.8
20260510013729 60 247 0.0 0.0 0.00 0.25 0.24 76 1008.3
20260510012729 60 247 0.0 0.0 0.00 0.25 0.24 75 1008.2
20260510011729 61 247 0.0 0.0 0.00 0.25 0.24 75 1008.1
20260510010729 61 247 0.0 0.0 0.00 0.25 0.24 73 1007.9
20260510005729 62 247 0.0 0.0 0.00 0.25 0.24 71 1007.8
20260510004729 63 247 0.0 0.0 0.00 0.25 0.24 70 1007.8
20260510002729 66 247 0.0 0.0 0.00 0.25 0.24 66 1007.5
20260510001730 67 247 0.0 0.0 0.00 0.25 0.24 64 1007.4
20260510000731 68 247 0.0 4.0 0.00 0.25 0.24 63 1007.3
20260509235728 69 240 0.0 4.0 0.00 0.25 0.24 62 1007.2
20260509234730 70 247 2.0 4.0 0.00 0.25 0.24 60 1007.2
20260509233729 71 228 2.0 4.0 0.00 0.25 0.24 58 1007.0
20260509232730 73 216 4.0 9.0 0.00 0.25 0.24 57 1007.0
20260509231729 73 241 3.0 9.0 0.00 0.25 0.24 56 1006.9
20260509230729 74 219 5.0 9.0 0.00 0.25 0.24 55 1006.9
20260509225730 74 152 5.0 11.0 0.00 0.25 0.24 53 1006.8
20260509224730 75 217 4.0 9.0 0.00 0.25 0.24 53 1007.0
20260509223730 75 224 3.0 11.0 0.00 0.25 0.24 57 1006.8
20260509221729 75 178 4.0 9.0 0.00 0.25 0.24 57 1006.7
20260509220729 75 134 6.0 11.0 0.00 0.25 0.24 53 1006.7